map of JJI home
JJI - Airport
Location
City:  Juanjuí, San Martín, Perú
Name:Juanjuí Airport
ICAO:SPJI
IATA:JJI

Details
Type:Airport (Aerodrome, Airfield)
Use:Public/Civil
Latitude:7°10'11"S (-7.169721)
Longitude:76°43'45"W (-76.729166)
Elevation:1148 ft (350 m)
Variation:3.61°W (WMM2015v2 magnetic declination)
-0.17° annual change
Runways:1
Longest:6562 × 98 ft (2000 × 30 m)

Time
Time Zone:UTC-5
Local Time:

Weather
METAR:SPJI 041400Z 00000KT 9999 FEW015 BKN090 25/23 Q1023 RMK PP000
TAF:SPJI 041100Z 0412/0512 00000KT 9999 SCT015 BKN080 TX31/0420Z TN19/0511Z
TEMPO 0412/0414 3000 RADZ BKN015 BKN080
TEMPO 0418/0422 5000 RADZ BKN020 BKN080

Related Locations
Nearby:
Farthest:KBR: 12342 mi / 19862 km
Kota Bharu [Sultan Ismail Petra], 03, MY

Find:

   beyond  
but within

Other Information
Maps:
NOTAMs:
Links:
Sources:

  
  • flag of Perú
  

Sectional Chart

Flight Planning
at skyvector.com

Satellite Image

Google Maps Satellite view

 

Copyright © 2004-2019 Karl L. Swartz. All rights reserved.
The Great Circle Mapper name and logo are trademarks of the Great Circle Mapper.
All other trademarks mentioned herein belong to their respective owners.
Please see credits for attibutions and further copyright information.

  Follow gcmap on Facebook Follow gcmap on Twitter GCmap on LinkedIn

hCard Microformat

Geo Microformat